Location: Fort Worth, Tx
(32.7431°N, 97.3695°W)
Time: 13:55:19
(UTC-05:00)

Vanguard 3 - All Passes

Search period start: 07 February 2023 00:00
Search period end: 17 February 2023 00:00
Orbit: 510 x 3252 km, 33.3° (Epoch: 07 February)

Date Brightness Start Highest point End Pass type
(mag) Time Alt. Az. Time Alt. Az. Time Alt. Az.
07 Feb - 01:28:06 10° W 01:42:57 47° SSW 02:01:17 10° SSE visible
07 Feb - 03:47:18 10° W 03:58:06 18° SW 04:09:06 10° S visible
07 Feb - 17:38:14 10° SW 17:43:15 40° SE 17:51:29 10° E daylight
07 Feb - 19:48:05 10° W 19:55:18 88° S 20:08:45 10° E visible
07 Feb - 21:59:21 10° W 22:09:35 88° S 22:27:19 10° ESE visible
08 Feb - 00:11:40 10° W 00:25:05 60° SSW 00:44:16 10° SE visible
08 Feb - 02:26:57 10° W 02:40:40 30° SW 02:56:08 10° SSE visible
08 Feb - 16:25:32 10° S 16:28:47 18° SE 16:33:04 10° E daylight
08 Feb - 18:33:44 10° WSW 18:39:31 71° SSE 18:50:01 10° E daylight
08 Feb - 20:44:26 10° W 20:52:41 87° N 21:07:52 10° E visible
08 Feb - 22:56:01 10° W 23:07:27 74° SSW 23:26:02 10° ESE visible
09 Feb - 01:09:16 10° W 01:22:58 42° SSW 01:40:41 10° SSE visible
09 Feb - 03:29:26 10° WSW 03:38:12 15° SW 03:47:20 10° SSW visible
09 Feb - 17:19:50 10° SW 17:24:27 43° SSE 17:31:57 10° E daylight
09 Feb - 19:29:48 10° W 19:36:24 89° N 19:48:41 10° E visible
09 Feb - 21:40:52 10° W 21:50:16 85° SSW 22:06:59 10° ESE visible
09 Feb - 23:52:56 10° W 00:05:17 55° SSW 00:23:41 10° SE visible
10 Feb - 02:08:22 10° W 02:20:41 26° SW 02:35:05 10° S night (unlit)
10 Feb - 16:06:47 10° S 16:09:57 19° SE 16:14:04 10° E daylight
10 Feb - 18:15:26 10° WSW 18:20:44 76° SSE 18:30:13 10° E daylight
10 Feb - 20:26:04 10° W 20:33:38 87° N 20:47:40 10° E visible
10 Feb - 22:37:25 10° W 22:47:54 68° SSW 23:05:31 10° ESE visible
11 Feb - 00:50:35 10° W 01:03:05 37° SSW 01:19:49 10° SSE visible
11 Feb - 03:12:43 10° WSW 03:18:23 12° SW 03:24:18 10° SSW night (unlit)
11 Feb - 17:01:25 10° SW 17:05:42 47° SSE 17:12:29 10° E daylight
11 Feb - 19:11:30 10° W 19:17:33 87° N 19:28:42 10° E daylight
11 Feb - 21:22:25 10° W 21:30:59 81° SSW 21:46:36 10° ESE visible
11 Feb - 23:34:18 10° W 23:45:34 49° SSW 00:02:55 10° SE visible
12 Feb - 01:50:04 10° W 02:00:49 22° SW 02:13:38 10° S night (unlit)
12 Feb - 15:48:03 10° SSW 15:51:09 21° SE 15:55:07 10° E daylight
12 Feb - 17:57:07 10° WSW 18:02:00 81° SSE 18:10:30 10° E daylight
12 Feb - 20:07:42 10° W 20:14:37 89° N 20:27:30 10° E visible
12 Feb - 22:18:52 10° W 22:28:26 63° SSW 22:44:53 10° SE visible
13 Feb - 00:32:04 10° W 00:43:18 32° SSW 00:58:41 10° SSE visible
13 Feb - 16:42:58 10° SW 16:47:00 51° SSE 16:53:07 10° E daylight
13 Feb - 18:53:12 10° W 18:58:45 85° N 19:08:48 10° E daylight
13 Feb - 21:03:58 10° W 21:11:47 76° SSW 21:26:11 10° ESE visible
13 Feb - 23:15:45 10° W 23:25:59 43° SSW 23:41:58 10° SE visible
14 Feb - 01:32:12 10° WSW 01:41:05 18° SW 01:51:39 10° S night (unlit)
14 Feb - 15:29:16 10° SSW 15:32:24 24° SSE 15:36:13 10° E daylight
14 Feb - 17:38:48 10° WSW 17:43:19 86° S 17:50:53 10° E daylight
14 Feb - 19:49:20 10° W 19:55:40 88° S 20:07:21 10° E visible
14 Feb - 22:00:22 10° W 22:09:04 56° SSW 22:24:10 10° SE visible
15 Feb - 00:13:44 10° W 00:23:39 27° SSW 00:37:16 10° SSE visible
15 Feb - 16:24:30 10° WSW 16:28:20 57° SSE 16:33:51 10° E daylight
15 Feb - 18:34:52 10° W 18:39:58 85° N 18:48:58 10° E daylight
15 Feb - 20:45:31 10° W 20:52:39 70° SSW 21:05:45 10° ESE visible
15 Feb - 22:57:19 10° W 23:06:29 37° SSW 23:20:51 10° SSE visible
16 Feb - 01:15:05 10° WSW 01:21:28 14° SW 01:28:49 10° S visible
16 Feb - 15:10:29 10° SSW 15:13:40 28° SSE 15:17:24 10° E daylight
16 Feb - 17:20:26 10° W 17:24:40 90° NNE 17:31:23 10° E daylight
16 Feb - 19:30:58 10° W 19:36:44 84° SSW 19:47:17 10° ESE visible
16 Feb - 21:41:54 10° W 21:49:47 49° SSW 22:03:22 10° SE visible
